星链-37518(STARLINK-37518)

导读

STARLINK-37518(NORAD编号69259)是美国SpaceX公司星链(Starlink)星座中的一颗低轨通信卫星,属于全球卫星互联网组网项目的组成部分。星链项目旨在通过部署数千颗批量生产的小型低轨卫星,结合地面收发设备,为全球未覆盖互联网服务的区域提供低延迟、高速的网络连接。该卫星运行在近地轨道,围绕地球周期约90余分钟,助力星链实现更广泛的宽带网络覆盖,推动全球互联互通,不过其大规模部署也引发了外太空安全等相关讨论。

基本信息
目录编号:
69259
目录名称:
STARLINK-37518
国际标识:
2026-117X
轨道中心:
EARTH
卫星名称:
星链-37518
卫星全名:
星链-37518(STARLINK-37518)
卫星状态:
在轨 (已飞行105 天)
发射日期:
2026-05-29 UTC
国别 :
美国 (US)
星等 :
--
该卫星已列入 空间交会检测服务 Space Conjunction Data Service (SCDS) ,当前飞行风险评估等级: 无高风险
轨道信息
数据来源 国际轨道数据 AOE轨道数据
星历时间 2026-09-11T14:09:14+0800
15小时前
查看轨道信息
2026-09-06T00:00:00+0800
6天前
查看轨道信息
半长轴 6840.816km 6840.843km
偏心率 0.0001537 0.0001502
轨道倾角 53.155° 53.160°
近地点辐角 123.951° 70.040°
升交点赤经 197.253° 223.389°
平近点角 236.164° 356.152°
近地点 461.627km 461.678km
远地点 463.731km 463.734km
周期 93.847分钟 93.848分钟
每日圈数 15.344084 15.343992
详细信息
固有亮度:
5
最大亮度:
2.5
卫星平台:
Starlink V1.0
覆盖范围:
全球
运营商:
太空探索技术公司
运营商所在国:
美国
制造商(研发单位):
太空探索技术公司
制造商所在国:
美国
使用方式:
暂无
卫星简介
Starlink 计划是 SpaceX 推出的全球卫星互联网项目,通过发射低轨道卫星,为全球尤其是偏远地区提供高速、低延迟的互联网服务。自 2019 年起,Starlink 已部署数千颗卫星,旨在缩小全球数字鸿沟,推动互联网普及。该项目还为军事、航空等行业提供通信支持,带来广泛经济效益。
2D轨道图
3D轨道图
轨道高度分析图
轨道倾角分析图
轨道综合分析图
查看轨道综合分析图
与全量物体交会距离演化趋势
与全量物体交会风险概率演化趋势